| time (UTC) | temp F | wind direction | speed knots | gust knots | rain 1hr in | rain 24hr in | rain mn in | humidity % | barometer mb |
| 20260507021017 | 65 | 0.0 | 1.7 | 0.00 | 0.00 | 0.00 | 87 | 1008.8 | |
| 20260507020037 | 65 | 0.0 | 1.7 | 0.00 | 0.00 | 0.00 | 86 | 1008.9 | |
| 20260507015018 | 66 | 270 | 0.9 | 2.6 | 0.00 | 0.00 | 0.00 | 86 | 1008.7 |
| 20260507014017 | 66 | 293 | 0.9 | 3.5 | 0.00 | 0.00 | 0.00 | 86 | 1008.7 |
| 20260507013039 | 66 | 293 | 0.9 | 4.3 | 0.00 | 0.00 | 0.00 | 85 | 1008.6 |
| 20260507012017 | 66 | 293 | 1.7 | 3.5 | 0.00 | 0.00 | 0.00 | 85 | 1008.8 |
| 20260507011037 | 66 | 315 | 1.7 | 4.3 | 0.00 | 0.00 | 0.00 | 85 | 1008.8 |
| 20260507010017 | 66 | 270 | 1.7 | 3.5 | 0.00 | 0.00 | 0.00 | 85 | 1008.7 |
| 20260507005018 | 66 | 270 | 1.7 | 4.3 | 0.00 | 0.00 | 0.00 | 84 | 1008.9 |
| 20260507004017 | 67 | 315 | 0.9 | 2.6 | 0.00 | 0.00 | 0.00 | 84 | 1009.0 |
| 20260507003017 | 67 | 338 | 0.9 | 7.0 | 0.00 | 0.00 | 0.00 | 82 | 1008.4 |
| 20260507002017 | 67 | 0.0 | 1.7 | 0.00 | 0.00 | 0.00 | 82 | 1008.1 | |
| 20260507001017 | 68 | 248 | 1.7 | 5.2 | 0.00 | 0.00 | 0.00 | 81 | 1008.0 |
| 20260507000017 | 68 | 0 | 0.9 | 3.5 | 0.00 | 0.00 | 0.00 | 81 | 1008.1 |
| 20260506235038 | 68 | 270 | 3.5 | 7.8 | 0.00 | 0.00 | 0.00 | 81 | 1008.1 |
| 20260506234017 | 68 | 315 | 2.6 | 7.0 | 0.00 | 0.00 | 0.00 | 80 | 1008.1 |
| 20260506233038 | 69 | 315 | 2.6 | 7.8 | 0.00 | 0.00 | 0.00 | 79 | 1007.9 |
| 20260506232037 | 69 | 315 | 1.7 | 5.2 | 0.00 | 0.00 | 0.00 | 79 | 1007.9 |
| 20260506231017 | 69 | 315 | 3.5 | 9.6 | 0.00 | 0.00 | 0.00 | 78 | 1008.0 |
| 20260506230017 | 70 | 270 | 2.6 | 7.8 | 0.00 | 0.00 | 0.00 | 78 | 1008.0 |
| 20260506225017 | 70 | 293 | 4.3 | 8.7 | 0.00 | 0.00 | 0.00 | 77 | 1008.0 |
| 20260506224017 | 70 | 293 | 3.5 | 8.7 | 0.00 | 0.00 | 0.00 | 77 | 1008.0 |
| 20260506223017 | 70 | 293 | 4.3 | 12.2 | 0.00 | 0.00 | 0.00 | 77 | 1007.8 |
| 20260506222017 | 71 | 315 | 3.5 | 8.7 | 0.00 | 0.00 | 0.00 | 76 | 1007.7 |
| 20260506221016 | 72 | 270 | 4.3 | 8.7 | 0.00 | 0.00 | 0.00 | 76 | 1007.8 |
| 20260506220017 | 71 | 315 | 4.3 | 12.2 | 0.00 | 0.00 | 0.00 | 77 | 1007.8 |
| 20260506215017 | 70 | 270 | 4.3 | 8.7 | 0.00 | 0.00 | 0.00 | 78 | 1007.7 |
| 20260506214017 | 70 | 270 | 4.3 | 10.4 | 0.00 | 0.00 | 0.00 | 78 | 1007.7 |
| 20260506213037 | 70 | 315 | 3.5 | 7.8 | 0.00 | 0.00 | 0.00 | 78 | 1007.8 |
| 20260506212038 | 70 | 270 | 5.2 | 9.6 | 0.00 | 0.00 | 0.00 | 78 | 1007.7 |
| 20260506211037 | 70 | 315 | 5.2 | 9.6 | 0.00 | 0.00 | 0.00 | 79 | 1007.5 |
| 20260506210017 | 69 | 315 | 4.3 | 8.7 | 0.00 | 0.00 | 0.00 | 79 | 1007.6 |
| 20260506205016 | 69 | 270 | 4.3 | 13.0 | 0.00 | 0.00 | 0.00 | 79 | 1007.5 |
| 20260506204017 | 69 | 315 | 6.1 | 13.0 | 0.00 | 0.00 | 0.00 | 78 | 1007.4 |
| 20260506203038 | 69 | 270 | 6.1 | 13.9 | 0.00 | 0.00 | 0.00 | 78 | 1007.3 |
| 20260506202016 | 69 | 270 | 4.3 | 9.6 | 0.00 | 0.00 | 0.00 | 78 | 1007.2 |
| 20260506201037 | 69 | 315 | 7.0 | 13.0 | 0.00 | 0.00 | 0.00 | 78 | 1007.3 |
| 20260506200017 | 68 | 315 | 7.0 | 14.8 | 0.00 | 0.00 | 0.00 | 78 | 1007.6 |
| 20260506195017 | 68 | 315 | 6.1 | 17.4 | 0.00 | 0.00 | 0.00 | 79 | 1007.6 |
| 20260506194016 | 68 | 270 | 5.2 | 12.2 | 0.00 | 0.00 | 0.00 | 79 | 1007.7 |
| 20260506193016 | 68 | 315 | 7.0 | 14.8 | 0.00 | 0.00 | 0.00 | 79 | 1007.9 |
| 20260506192017 | 68 | 293 | 7.0 | 16.5 | 0.00 | 0.00 | 0.00 | 80 | 1008.1 |
| 20260506191016 | 67 | 293 | 4.3 | 11.3 | 0.00 | 0.00 | 0.00 | 81 | 1008.1 |
| 20260506190017 | 67 | 293 | 7.0 | 18.2 | 0.00 | 0.00 | 0.00 | 81 | 1008.2 |
| 20260506185036 | 67 | 293 | 3.5 | 10.4 | 0.00 | 0.00 | 0.00 | 82 | 1008.2 |
| 20260506184016 | 66 | 315 | 5.2 | 13.9 | 0.00 | 0.00 | 0.00 | 82 | 1008.3 |
| 20260506183018 | 66 | 293 | 4.3 | 9.6 | 0.00 | 0.00 | 0.00 | 82 | 1008.3 |
| 20260506182016 | 66 | 270 | 6.1 | 13.9 | 0.00 | 0.00 | 0.00 | 83 | 1008.6 |
| 20260506181016 | 66 | 270 | 5.2 | 15.6 | 0.00 | 0.00 | 0.00 | 83 | 1008.4 |
| 20260506180016 | 65 | 270 | 4.3 | 9.6 | 0.00 | 0.00 | 0.00 | 84 | 1008.5 |
| 20260506175016 | 66 | 315 | 4.3 | 10.4 | 0.00 | 0.00 | 0.00 | 83 | 1008.7 |
| 20260506174016 | 66 | 293 | 3.5 | 8.7 | 0.00 | 0.00 | 0.00 | 81 | 1008.6 |
| 20260506173036 | 66 | 293 | 2.6 | 7.8 | 0.00 | 0.00 | 0.00 | 81 | 1008.5 |
| 20260506172057 | 66 | 270 | 5.2 | 13.9 | 0.00 | 0.00 | 0.00 | 80 | 1008.5 |
| 20260506171036 | 66 | 270 | 3.5 | 17.4 | 0.00 | 0.00 | 0.00 | 81 | 1008.8 |
| 20260506170016 | 67 | 270 | 4.3 | 10.4 | 0.00 | 0.00 | 0.00 | 80 | 1008.8 |
| 20260506165036 | 67 | 270 | 4.3 | 11.3 | 0.00 | 0.00 | 0.00 | 80 | 1008.9 |
| 20260506164017 | 67 | 315 | 1.7 | 7.0 | 0.00 | 0.00 | 0.00 | 82 | 1008.9 |
| 20260506163016 | 67 | 270 | 2.6 | 7.0 | 0.00 | 0.00 | 0.00 | 81 | 1008.9 |
| 20260506162016 | 67 | 270 | 3.5 | 11.3 | 0.00 | 0.00 | 0.00 | 79 | 1009.2 |
| 20260506161016 | 69 | 293 | 4.3 | 10.4 | 0.00 | 0.00 | 0.00 | 76 | 1009.6 |
| 20260506160139 | 69 | 293 | 4.3 | 7.8 | 0.00 | 0.00 | 0.00 | 74 | 1010.0 |
| 20260506155016 | 69 | 293 | 4.3 | 11.3 | 0.00 | 0.00 | 0.00 | 73 | 1009.9 |
| 20260506154016 | 69 | 293 | 5.2 | 9.6 | 0.00 | 0.00 | 0.00 | 72 | 1009.9 |
| 20260506153017 | 69 | 270 | 6.1 | 13.9 | 0.00 | 0.00 | 0.00 | 71 | 1009.7 |
| 20260506152016 | 69 | 293 | 4.3 | 14.8 | 0.00 | 0.00 | 0.00 | 71 | 1009.9 |
| 20260506151016 | 69 | 293 | 4.3 | 9.6 | 0.00 | 0.00 | 0.00 | 70 | 1010.0 |
| 20260506150016 | 70 | 270 | 2.6 | 10.4 | 0.00 | 0.00 | 0.00 | 69 | 1009.8 |
| 20260506145016 | 70 | 338 | 2.6 | 8.7 | 0.00 | 0.00 | 0.00 | 69 | 1009.9 |
| 20260506144016 | 70 | 293 | 3.5 | 11.3 | 0.00 | 0.00 | 0.00 | 70 | 1010.1 |
| 20260506143016 | 69 | 270 | 2.6 | 10.4 | 0.00 | 0.00 | 0.00 | 70 | 1010.1 |
| 20260506142016 | 69 | 270 | 3.5 | 8.7 | 0.00 | 0.00 | 0.00 | 69 | 1010.1 |
| 20260506141016 | 70 | 338 | 3.5 | 8.7 | 0.00 | 0.00 | 0.00 | 68 | 1010.1 |
| 20260506140016 | 70 | 315 | 4.3 | 9.6 | 0.00 | 0.00 | 0.00 | 68 | 1010.0 |
| 20260506135016 | 70 | 270 | 2.6 | 9.6 | 0.00 | 0.00 | 0.00 | 69 | 1009.9 |
| 20260506134017 | 69 | 293 | 5.2 | 10.4 | 0.00 | 0.00 | 0.00 | 69 | 1009.9 |
| 20260506133016 | 69 | 315 | 4.3 | 10.4 | 0.00 | 0.00 | 0.00 | 70 | 1009.8 |
| 20260506132036 | 68 | 270 | 3.5 | 10.4 | 0.00 | 0.00 | 0.00 | 71 | 1010.0 |
| 20260506131016 | 69 | 293 | 3.5 | 12.2 | 0.00 | 0.00 | 0.00 | 71 | 1010.1 |
| 20260506130015 | 69 | 293 | 3.5 | 10.4 | 0.00 | 0.00 | 0.00 | 71 | 1010.2 |
| 20260506125036 | 68 | 270 | 5.2 | 10.4 | 0.00 | 0.00 | 0.00 | 72 | 1010.3 |
| 20260506124016 | 68 | 270 | 3.5 | 10.4 | 0.00 | 0.00 | 0.00 | 73 | 1010.2 |
| 20260506123016 | 67 | 270 | 5.2 | 13.0 | 0.00 | 0.00 | 0.00 | 74 | 1010.2 |
| 20260506122015 | 67 | 293 | 3.5 | 9.6 | 0.00 | 0.00 | 0.00 | 74 | 1010.2 |
| 20260506121016 | 67 | 270 | 3.5 | 8.7 | 0.00 | 0.00 | 0.00 | 75 | 1010.1 |
| 20260506120015 | 67 | 270 | 3.5 | 9.6 | 0.00 | 0.00 | 0.00 | 76 | 1010.0 |
| 20260506115016 | 66 | 270 | 3.5 | 13.9 | 0.00 | 0.00 | 0.00 | 77 | 1010.1 |
| 20260506114016 | 66 | 315 | 3.5 | 8.7 | 0.00 | 0.00 | 0.00 | 76 | 1010.0 |
| 20260506113015 | 65 | 293 | 1.7 | 7.0 | 0.00 | 0.00 | 0.00 | 78 | 1010.2 |
| 20260506112036 | 65 | 293 | 2.6 | 7.0 | 0.00 | 0.00 | 0.00 | 79 | 1010.0 |
| 20260506111015 | 64 | 270 | 2.6 | 7.0 | 0.00 | 0.00 | 0.00 | 80 | 1010.1 |
| 20260506110015 | 64 | 270 | 4.3 | 8.7 | 0.00 | 0.00 | 0.00 | 80 | 1010.3 |
| 20260506105015 | 63 | 270 | 2.6 | 7.8 | 0.00 | 0.00 | 0.00 | 81 | 1010.2 |
| 20260506104016 | 63 | 293 | 2.6 | 7.8 | 0.00 | 0.00 | 0.00 | 82 | 1010.1 |
| 20260506103015 | 62 | 248 | 2.6 | 7.8 | 0.00 | 0.00 | 0.00 | 82 | 1010.1 |
| 20260506102015 | 62 | 270 | 2.6 | 7.8 | 0.00 | 0.00 | 0.00 | 82 | 1010.0 |
| 20260506101015 | 63 | 315 | 2.6 | 7.0 | 0.00 | 0.00 | 0.00 | 83 | 1010.1 |
| 20260506100017 | 63 | 180 | 2.6 | 7.8 | 0.00 | 0.00 | 0.00 | 83 | 1010.1 |
| 20260506095017 | 63 | 270 | 3.5 | 8.7 | 0.00 | 0.00 | 0.00 | 83 | 1010.1 |
| 20260506094038 | 63 | 293 | 2.6 | 7.0 | 0.00 | 0.00 | 0.00 | 82 | 1009.9 |
| 20260506093017 | 63 | 293 | 1.7 | 5.2 | 0.00 | 0.00 | 0.00 | 82 | 1009.8 |
| 20260506092018 | 63 | 315 | 1.7 | 7.0 | 0.00 | 0.00 | 0.00 | 82 | 1009.8 |
| 20260506091038 | 63 | 248 | 2.6 | 10.4 | 0.00 | 0.00 | 0.00 | 82 | 1009.8 |
| 20260506090017 | 63 | 270 | 1.7 | 5.2 | 0.00 | 0.00 | 0.00 | 82 | 1010.0 |
| 20260506085038 | 64 | 158 | 2.6 | 6.1 | 0.00 | 0.00 | 0.00 | 82 | 1009.9 |
| 20260506084038 | 63 | 270 | 3.5 | 10.4 | 0.00 | 0.00 | 0.00 | 82 | 1010.0 |
| 20260506083017 | 64 | 270 | 2.6 | 7.0 | 0.00 | 0.00 | 0.00 | 82 | 1010.1 |
| 20260506082056 | 63 | 293 | 2.6 | 9.6 | 0.00 | 0.00 | 0.00 | 83 | 1010.3 |
| 20260506081057 | 64 | 270 | 2.6 | 6.1 | 0.00 | 0.00 | 0.00 | 82 | 1010.3 |
| 20260506073017 | 64 | 293 | 1.7 | 7.0 | 0.00 | 0.00 | 0.00 | 82 | 1010.3 |
| 20260506072018 | 64 | 315 | 1.7 | 7.0 | 0.00 | 0.00 | 0.00 | 81 | 1010.3 |
| 20260506071017 | 64 | 270 | 1.7 | 6.1 | 0.00 | 0.00 | 0.00 | 81 | 1010.4 |
| 20260506062038 | 65 | 293 | 1.7 | 7.0 | 0.00 | 0.00 | 0.00 | 80 | 1010.4 |
| 20260506061017 | 65 | 248 | 1.7 | 6.1 | 0.00 | 0.00 | 0.00 | 80 | 1010.3 |
| 20260506051016 | 66 | 293 | 1.7 | 5.2 | 0.00 | 0.00 | 0.00 | 78 | 1010.9 |
| 20260506045037 | 66 | 248 | 2.6 | 8.7 | 0.00 | 0.00 | 0.00 | 78 | 1011.0 |
| 20260506044017 | 66 | 293 | 2.6 | 8.7 | 0.00 | 0.00 | 0.00 | 78 | 1011.1 |
| 20260506043017 | 66 | 225 | 1.7 | 7.0 | 0.00 | 0.00 | 0.00 | 77 | 1011.1 |
| 20260506042017 | 66 | 225 | 1.7 | 5.2 | 0.00 | 0.00 | 0.00 | 77 | 1011.1 |
| 20260506041017 | 66 | 293 | 2.6 | 7.8 | 0.00 | 0.00 | 0.00 | 76 | 1011.0 |
| 20260506040037 | 66 | 293 | 2.6 | 7.8 | 0.00 | 0.00 | 0.00 | 76 | 1011.0 |
| 20260506035017 | 66 | 248 | 2.6 | 7.8 | 0.00 | 0.00 | 0.00 | 76 | 1011.1 |
| 20260506034017 | 66 | 293 | 2.6 | 7.0 | 0.00 | 0.00 | 0.00 | 75 | 1011.0 |
| 20260506033018 | 67 | 248 | 2.6 | 10.4 | 0.00 | 0.00 | 0.00 | 75 | 1011.0 |
| 20260506032058 | 67 | 270 | 1.7 | 7.0 | 0.00 | 0.00 | 0.00 | 74 | 1011.1 |
| 20260506031018 | 67 | 270 | 2.6 | 7.0 | 0.00 | 0.00 | 0.00 | 73 | 1011.0 |
| 20260506030038 | 67 | 293 | 2.6 | 7.8 | 0.00 | 0.00 | 0.00 | 72 | 1011.1 |
| 20260506025017 | 68 | 338 | 2.6 | 7.0 | 0.00 | 0.00 | 0.00 | 71 | 1011.2 |
| 20260506024017 | 68 | 293 | 2.6 | 8.7 | 0.00 | 0.00 | 0.00 | 70 | 1011.3 |
| 20260506023017 | 68 | 293 | 1.7 | 5.2 | 0.00 | 0.00 | 0.00 | 69 | 1011.3 |
| 20260506022017 | 69 | 225 | 3.5 | 9.6 | 0.00 | 0.00 | 0.00 | 68 | 1011.1 |